Location: Castiglione Fibocchi
(43.5333°N, 11.7667°E)
Time: 17:22:39
(UTC+00:00)

Cosmos 1125 Rocket - Pass Details

Date: 15 August 2020
Orbit: 757 x 781 km, 74.0° (Epoch: 17 September)

Event Time Altitude Azimuth Distance (km) Brightness Sun altitude
Exits shadow 02:53:59 21° 245° (WSW) 1,673 4.6 -14.3°
Maximum altitude 02:56:49 36° 298° (WNW) 1,202 4.3 -13.8°
Drops below altitude 10° 03:01:42 10° 5° (N) 2,328 6.6 -13.1°
Sets 03:04:17 0° 14° (NNE) 3,263 7.6 -12.7°
